Regional Weather Roundup
Issued by NWS

Home | Current Version | Previous Version | Text Only | Print | Product List | Glossary On
Versions: 1 2 3 4 5 6 7 8 9 10 11 12 13 14 15 16 17 18 19 20 21 22 23 24 25 26 27 28 29 30 31 32 33 34 35 36 37 38 39 40 41 42 43 44 45 46 47 48 49 50
000
ASUS43 KMKX 240700
RWRWI

WISCONSIN REGIONAL WEATHER ROUNDUP
NATIONAL WEATHER SERVICE MILWAUKEE/SULLIVAN WI
200 AM CDT THU AUG 24 2017

NOTE: "FAIR" INDICATES FEW OR NO CLOUDS BELOW 12,000 FEET WITH NO
SIGNIFICANT WEATHER AND/OR OBSTRUCTIONS TO VISIBILITY.

WIZ001-002-006>008-014>016-023>028-240800-
NORTHWEST WISCONSIN

CITY           SKY/WX    TMP DP  RH WIND       PRES   REMARKS
SUPERIOR ARPT    N/A     54  53  98 CALM      30.11R
ASHLAND        CLOUDY    52  50  93 CALM      30.12S
HAYWARD        CLOUDY    54  52  93 NE3       30.11S
SIREN          CLOUDY    55  55  97 CALM      30.12S
CUMBERLAND     RAIN      54  52  94 S6        30.12S
RICE LAKE      RAIN      56  54  93 SW3       30.14R
CHETEK         RAIN      55  55  99 CALM      30.12S
LADYSMITH      CLOUDY    55  51  85 CALM      30.13S
EAU CLAIRE     NOT AVBL
MENOMONIE      CLOUDY    58  53  85 CALM      30.11S
NEW RICHMOND   LGT RAIN  57  55  92 N6        30.14R
OSCEOLA        LGT RAIN  57  57 100 CALM      30.16F
$$

WIZ003>005-009-010-017-018-240800-
NORTH CENTRAL WISCONSIN

CITY           SKY/WX    TMP DP  RH WIND       PRES   REMARKS
MANITOWISH WTR CLOUDY    46  46 100 CALM      30.12S
ARBOR VITAE    PTCLDY    52  49  89 CALM      30.11F
WOODRUFF       PTCLDY    52  49  89 CALM      30.11F
RHINELANDER    CLOUDY    48  47  96 E3        30.12F
EAGLE RIVER    CLOUDY    46  46 100 CALM      30.12S
LAND O LAKES   PTCLDY    44  44  99 CALM      30.13S
PHILLIPS       CLOUDY    50  45  82 CALM      30.11R
TOMAHAWK         N/A     49  44  83 CALM      30.11F
MEDFORD        CLOUDY    50  46  88 NE3       30.12S
MERRILL        CLOUDY    50  48  93 CALM      30.13R
$$

WIZ029-030-035-036-043>047-240800-
CENTRAL WISCONSIN

CITY           SKY/WX    TMP DP  RH WIND       PRES   REMARKS
WAUSAU         CLOUDY    53  43  68 CALM      30.10S
MOSINEE        CLOUDY    52  45  76 NE5       30.13R
MARSHFIELD     CLOUDY    55  44  66 E8        30.10F
STEVENS POINT  MOCLDY    51  44  79 NE6       30.11S
WAUPACA        MOCLDY    55  47  74 N5        30.10R
WAUTOMA        NOT AVBL
WISC RAPIDS    CLOUDY    57  44  62 NE7       30.12R
CAMP DOUGLAS   PTCLDY    49  49  99 W5        30.10R
$$

WIZ011>013-019>022-031-037>040-048>050-240800-
NORTHEAST WISCONSIN

CITY           SKY/WX    TMP DP  RH WIND       PRES   REMARKS
ANTIGO         CLOUDY    46  44  93 N5        30.13R
SHAWANO        PTCLDY    55  46  73 NE7       30.10S
OCONTO         PTCLDY    49  43  78 CALM      30.09S
STURGEON BAY   NOT AVBL
GREEN BAY      MOCLDY    54  47  77 N7        30.08S
MANITOWOC      NOT AVBL
APPLETON       CLOUDY    52  43  71 N12       30.07R
CLINTONVILLE   PTCLDY    52  45  76 NE5       30.10R
OSHKOSH        NOT AVBL
$$

WIZ032>034-041-042-053>061-240800-
SOUTHWEST WISCONSIN

CITY           SKY/WX    TMP DP  RH WIND       PRES   REMARKS
LA CROSSE      MOCLDY    59  55  87 CALM      30.09S
SPARTA         PTCLDY    48  47  97 CALM      30.11S
VIROQUA        MOCLDY    55  52  90 NE3       30.10R
BOSCOBEL       NOT AVBL
PRAIRIE DU CHI CLEAR     54  52  92 CALM      30.08R
PLATTEVILLE    CLEAR     54  54 100 CALM      30.07S
$$

WIZ056-057-062-063-064-067-068-240800-
SOUTH CENTRAL WISCONSIN

CITY           SKY/WX    TMP DP  RH WIND       PRES   REMARKS
REEDSBURG      CLEAR     51  51 100 CALM      30.09R
BARABOO/DELLS  CLEAR     51  49  92 CALM      30.08R
LONE ROCK      NOT AVBL
MINERAL POINT  CLEAR     55  55 100 CALM      30.08R
MADISON        NOT AVBL
MIDDLETON      CLOUDY    52  52 100 CALM      30.07R VSB 1/2
WATERTOWN      CLEAR     52  52 100 CALM      30.05R
MONROE         CLEAR     59  50  72 NW6       30.06S
JANESVILLE     FOG       52  52 100 CALM      30.05R VSB 1/2
$$

WIZ051-052-058>065-066-070>072-240800-
SOUTHEAST WISCONSIN

CITY           SKY/WX    TMP DP  RH WIND       PRES   REMARKS
MILWAUKEE      CLEAR     58  55  90 NW5       30.03R
WAUKESHA       CLEAR     52  50  93 CALM      30.05S
MILWAUKEE/TIMM CLEAR     55  50  82 CALM      30.04S
RACINE         CLEAR     59  56  89 W6        30.04S
KENOSHA        CLEAR     54  53  97 W3        30.04R
FOND DU LAC    PTCLDY    59  54  83 N5        30.06R
SHEBOYGAN      PTCLDY    57  57 100 N10       30.04R
WEST BEND      CLEAR     50  50 100 CALM      30.04R
JUNEAU         PTCLDY    55  50  85 CALM      30.06R
$$

LSZ147-162-240800-
LAKE SUPERIOR

STATION/POSITION TIME  TEMP    WIND        PRES    WAVE
                       AIR SEA DIR/SP/G            HT/PER
                 (UTC) (F)     (DEG/KT/KT) (MB)    (FT/S)
W MID LAKE BUOY  0550   60 59  340/  8/  8 1019.2R   0
DEVILS ISLAND    0600   60      30/  5/  6 1019.6R
PORT WING        0540   59     130/  3/  5 1019.3R
SAXON HARBOR     0640   50     180/  6/  8 1019.3R
$$

LMZ867-665-643>646-240800-
LAKE MICHIGAN

STATION/POSITION TIME  TEMP    WIND        PRES    WAVE
                       AIR SEA DIR/SP/G            HT/PER
                 (UTC) (F)     (DEG/KT/KT) (MB)    (FT/S)
S GREEN BAY BUOY 0630   61 70   20/ 14/ 17 1018.4R
N MID LAKE BUOY  0550   58 65  360/ 14/ 17 1018.8R   3/ 5
NORTHPORT PIER   0640   59      10/ 10/ 14 1018.3S
KEWAUNEE LAKESHO 0630   57     360/  7/ 12 1017.4S
SHEBOYGAN LAKESH 0600   66     100/ 10/ 12 1016.4F
PORT WASHINGTON  0640   61     310/  6/  9 1017.6R
ATWATER BUOY     0509   65 69  240/  6/  8 1017.0R
MILWAUKEE LAKESH 0630   64     280/  3/  3   N/A
S MID LAKE BUOY  0550   67 71  150/  2/  4 1017.1R   1/ 4
KENOSHA   LAKESH 0600   64     240/  5/  8 1016.6
$$

TC  - TEMPERATURE IN CELSIUS
VSB - VISIBILITY IN STATUTE MILES
WCI - WIND CHILL INDEX
HX  - HEAT INDEX





USA.gov is the U.S. government's official web portal to all federal, state and local government web resources and services.